Tracking 32407 objects as of 5-Dec-2025
HD Live streaming from Space Station
objects crossing your sky now

SATELIOT_3

Track SATELIOT_3 now!
10-day predictions


NORAD ID: 60552
Int'l Code: 2024-149CN
Perigee: 579.0 km
Apogee: 587.3 km
Inclination: 97.7 °
Period: 96.2 minutes
Semi major axis: 6954 km
RCS: Unknown
Launch date: August 16, 2024
Source: Spain (SPN)
Launch site: AIR FORCE WESTERN TEST RANGE (AFWTR)
Your satellite tracking list
Your tracking list is empty




NASA's NSSDC Master Catalog

Two Line Element Set (TLE):
1 60552U 24149CN  25339.17320323  .00006558  00000-0  57376-3 0  9996
2 60552  97.7039  53.8619 0006023  32.7836 327.3758 14.97051406 71041
Source of the keplerian elements: AFSPC